Location: Unspecified
(49.2170°N, 0.0000°E)
Time: 22:02:07
(UTC+00:00)

Courier 1B Rocket - Pass Details

Date: 26 January 2021
Orbit: 920 x 1202 km, 28.2° (Epoch: 08 March)

Event Time Altitude Azimuth Distance (km) Brightness Sun altitude
Rises 07:25:31 0° 226° (SW) 3,712 7.8 -2.8°
Reaches altitude 10° 07:30:07 10° 197° (SSW) 2,832 7.6 -2.1°
Maximum altitude 07:32:38 12° 176° (S) 2,710 7.8 -1.7°
Drops below altitude 10° 07:35:12 10° 154° (SSE) 2,911 8.4 -1.3°
Sets 07:40:06 0° 127° (SE) 3,941 10.8 -0.6°
